Location: Eldred Sherwood Park Lake Dam
(42.9416°N, 93.5655°W)
Time: 23:54:57
(UTC+00:00)

Transit 4A - Pass Details

Date: 19 November 2024
Orbit: 862 x 980 km, 66.8° (Epoch: 06 December)

Event Time Altitude Azimuth Distance (km) Brightness Sun altitude
Rises 02:03:08 0° 333° (NNW) 3,665 11.4 -35.6°
Reaches altitude 10° 02:05:56 10° 342° (NNW) 2,726 10.5 -36.1°
Enters shadow 02:07:23 17° 350° (N) 2,279 10.0 -36.4°
